Snowfall_Accumulation
0.0 0.0 0.0 0.0 0.0 0.1 0.4 0.0 0.0 0.2 0.2 0.0 0.0 2.7 3.9 5.1 3.5 3.0 2.4 3.4 3.7 3.5 2.2 0.9 0.6 0.4 0.2 0.2 0.1 0.1 0.0 0.0 0.1 0.0 0.0 0.0 0.0 0.0 0.0 0.0 0.0 0.0 0.0 0.0
0.0 0.0 0.0 0.0 0.1 0.0 0.0 0.0 0.0 0.0 0.2 0.0 0.2 0.3 2.7 3.4 2.9 5.7 6.2 4.2 3.3 4.1 2.3 1.3 1.3 1.3 1.0 0.5 0.2 0.3 0.4 0.0 0.0 0.0 0.0 0.0 0.0 0.0 0.0 0.0 0.0 0.0 0.0 0.0
0.0 0.0 0.0 0.0 0.0 0.0 0.0 0.0 0.0 0.4 0.0 0.0 2.0 2.1 4.7 7.3 13.4 12.8 10.5 9.3 10.4 8.0 4.9 2.8 2.1 2.1 2.1 1.0 0.7 0.7 0.5 0.1 0.1 0.0 0.0 0.0 0.0 0.0 0.0 0.0 0.0 0.0 0.0 0.0
0.0 0.0 0.0 0.0 0.0 0.0 0.0 0.0 0.0 0.0 0.0 0.0 0.7 0.0 1.2 7.0 16.9 18.7 18.5 17.9 17.1 12.9 8.0 3.1 1.6 1.5 1.4 1.2 1.8 1.1 0.7 0.3 0.1 0.1 0.0 0.0 0.0 0.0 0.0 0.0 0.0 0.0 0.0 0.0
0.0 0.0 0.0 0.0 0.0 0.0 0.0 0.1 0.0 0.0 0.0 0.0 0.0 0.1 0.0 0.0 3.7 10.8 19.6 22.6 21.9 20.0 14.3 6.9 3.4 2.2 2.2 1.2 1.1 0.5 0.6 0.4 0.1 0.0 0.0 0.0 0.0 0.0 0.0 0.0 0.0 0.0 0.0 0.0
0.0 0.1 0.0 0.0 0.0 0.0 0.0 0.0 0.0 0.0 0.2 0.9 1.8 5.0 2.3 3.1 7.1 12.5 17.3 23.5 26.4 21.5 12.6 6.5 2.9 2.2 1.8 1.0 0.9 0.1 0.2 0.2 0.1 0.0 0.0 0.0 0.0 0.0 0.0 0.0 0.0 0.0 0.0 0.0
0.0 0.2 0.0 0.0 0.0 0.0 0.0 0.0 0.0 0.0 0.3 1.6 3.5 4.6 4.6 5.8 7.8 9.8 14.7 23.7 23.3 16.0 12.4 5.7 3.8 3.7 1.1 1.3 1.2 0.1 0.1 0.0 0.0 0.0 0.0 0.0 0.0 0.0 0.0 0.0 0.0 0.0 0.0 0.0
0.3 0.4 0.0 0.0 0.0 0.0 0.0 0.0 0.0 0.2 0.0 1.5 0.7 0.4 1.1 3.4 6.1 11.0 16.1 25.1 30.0 26.5 19.2 13.0 9.1 5.4 4.9 2.5 1.3 0.1 0.0 0.0 0.0 0.0 0.0 0.0 0.0 0.0 0.0 0.0 0.0 0.0 0.0 0.0
0.0 0.0 0.0 0.0 0.0 0.0 0.0 0.0 0.0 0.6 0.1 0.8 1.1 0.4 0.3 2.1 3.8 8.6 12.6 25.7 39.3 38.2 30.1 14.3 9.9 7.4 7.8 1.8 0.7 0.1 0.0 0.0 0.0 0.0 0.0 0.0 0.0 0.0 0.0 0.0 0.0 0.0 0.0 0.0
0.0 0.0 0.0 0.0 0.0 0.0 0.0 0.0 0.0 0.2 0.3 0.3 1.3 0.1 0.4 0.5 2.8 6.8 11.1 25.1 37.8 34.5 27.1 17.0 14.2 10.0 5.3 1.4 0.3 0.2 0.0 0.2 0.0 0.0 0.0 0.0 0.0 0.0 0.0 0.0 0.0 0.0 0.0 0.0
0.1 0.0 0.0 0.0 0.0 0.0 0.0 0.0 0.0 0.0 0.0 0.2 0.8 0.0 0.5 0.5 1.4 4.9 10.5 17.3 32.3 38.8 33.8 24.8 17.9 14.6 7.6 4.0 0.4 0.0 0.1 0.1 0.0 0.0 0.0 0.0 0.0 0.0 0.0 0.0 0.0 0.0 0.0 0.0
0.1 0.0 0.0 0.0 0.0 0.0 0.0 0.0 0.0 0.2 0.1 0.0 0.0 0.6 0.6 0.3 0.3 3.6 8.3 13.7 23.2 33.2 33.3 29.5 22.6 15.3 10.9 3.7 0.7 0.3 0.0 0.0 0.0 0.0 0.0 0.0 0.0 0.0 0.0 0.0 0.0 0.0 0.0 0.0
0.0 0.0 0.0 0.0 0.0 0.0 0.0 0.0 0.0 0.1 0.0 0.3 0.0 0.3 0.1 0.4 0.1 0.6 4.7 7.6 12.7 25.2 37.3 37.0 29.7 20.0 13.5 9.9 2.5 1.0 0.3 0.0 0.0 0.0 0.0 0.0 0.0 0.0 0.0 0.0 0.0 0.0 0.0 0.0
0.0 0.0 0.0 0.0 0.0 0.0 0.0 0.0 0.0 0.0 0.0 0.0 0.0 0.0 0.0 0.0 0.0 0.1 1.8 5.2 7.1 13.0 24.9 29.7 25.4 18.6 14.1 11.3 9.2 1.1 0.5 0.1 0.0 0.0 0.0 0.0 0.0 0.0 0.0 0.0 0.0 0.0 0.0 0.0
0.0 0.0 0.0 0.0 0.0 0.0 0.0 0.0 0.0 0.0 0.0 0.0 0.0 0.0 0.0 0.2 0.1 0.1 0.0 0.3 3.5 6.4 13.7 16.1 13.9 17.4 19.2 14.0 10.7 2.2 1.1 0.5 0.1 0.0 0.0 0.0 0.0 0.0 0.0 0.0 0.0 0.0 0.0 0.0
0.0 0.0 0.0 0.0 0.0 0.0 0.0 0.0 0.0 0.0 0.0 0.0 0.0 0.0 0.0 0.0 0.0 0.0 0.0 0.0 1.1 3.9 7.4 13.3 10.2 11.4 14.0 14.2 10.7 7.7 5.8 4.1 0.7 0.0 0.0 0.0 0.0 0.0 0.0 0.0 0.0 0.0 0.0 0.0
0.0 0.0 0.0 0.0 0.0 0.0 0.0 0.0 0.2 0.3 0.1 0.1 0.1 0.1 0.0 0.0 0.0 0.0 0.0 0.0 0.0 0.8 3.5 6.7 7.6 6.3 8.1 10.3 11.1 10.0 8.1 3.6 3.9 0.6 0.2 0.1 0.0 0.0 0.0 0.0 0.0 0.0 0.0 0.0
0.0 0.0 0.0 0.0 0.0 0.0 0.0 0.0 0.0 0.0 0.2 0.2 0.0 0.0 0.0 0.0 0.3 0.0 0.0 0.0 0.0 0.0 0.1 1.0 3.5 3.9 5.6 7.5 8.4 9.0 8.6 6.9 3.7 2.7 2.2 0.3 0.0 0.0 0.0 0.0 0.0 0.0 0.0 0.0
0.0 0.0 0.0 0.0 0.0 0.1 0.0 0.0 0.0 0.0 0.0 0.0 0.1 0.0 0.0 0.0 0.0 0.0 0.0 0.0 0.0 0.4 0.6 0.1 0.1 1.9 3.1 4.6 4.7 6.2 6.4 6.6 4.9 3.4 2.3 2.1 0.0 0.0 0.0 0.0 0.0 0.0 0.0 0.0
0.0 0.0 0.0 0.0 0.0 0.0 0.0 0.0 0.0 0.0 0.0 0.0 0.0 0.0 0.0 0.0 0.0 0.0 0.0 0.0 0.5 2.8 0.1 0.2 0.1 1.0 1.6 2.3 3.6 3.9 6.1 5.6 6.1 4.8 4.3 2.8 2.2 1.1 0.0 0.0 0.0 0.0 0.0 0.7
0.0 0.0 0.0 0.0 0.0 0.0 0.0 0.0 0.0 0.0 0.0 0.0 0.0 0.0 0.0 0.0 0.0 0.0 0.0 0.0 0.0 0.9 0.0 0.0 0.6 1.1 1.0 1.8 2.3 3.5 4.3 5.6 5.5 6.0 5.3 3.9 2.4 2.6 0.2 0.5 0.6 0.4 0.8 1.0
0.0 0.0 0.0 0.1 0.1 0.0 0.0 0.0 0.0 0.0 0.0 0.0 0.0 0.0 0.0 0.0 0.0 0.0 0.0 0.5 0.3 0.3 0.0 0.1 1.2 0.5 0.6 1.3 1.9 2.8 4.0 4.7 5.1 5.5 6.1 5.9 4.6 3.8 3.1 1.0 0.5 0.6 0.7 1.1
0.0 0.4 0.6 0.5 0.2 0.1 0.0 0.0 0.0 0.0 0.0 0.0 0.0 0.0 0.0 0.0 0.0 0.3 0.2 0.0 0.0 0.1 0.0 0.4 0.6 0.4 0.0 0.9 1.8 2.4 3.5 4.7 5.6 5.6 6.0 6.5 6.1 5.9 5.6 4.8 5.0 4.1 4.1 2.5
0.8 0.9 0.7 0.4 0.2 0.2 0.2 0.1 0.0 0.0 0.0 0.0 0.0 0.0 0.0 0.1 0.0 0.0 0.0 0.0 0.0 0.0 0.0 0.5 0.4 0.2 0.0 0.6 1.6 2.5 3.5 4.5 5.3 6.1 6.3 5.5 6.6 6.3 6.6 6.2 5.2 5.8 6.2 5.3
0.1 1.0 0.7 0.5 0.4 0.4 0.2 0.1 0.0 0.0 0.0 0.0 0.0 0.0 0.0 0.0 0.1 0.0 0.0 0.0 0.0 0.0 0.0 0.1 0.1 0.0 0.0 0.2 1.2 2.5 3.3 4.9 5.8 6.1 6.6 6.3 6.6 6.8 6.7 6.8 6.1 6.2 6.8 6.4
1.1 0.7 0.5 0.4 0.3 0.2 0.1 0.0 0.0 0.0 0.0 0.0 0.0 0.0 0.0 0.0 0.0 0.0 0.0 0.0 0.0 0.0 0.0 0.0 0.0 0.1 0.1 0.5 1.1 2.6 3.6 4.1 5.6 6.7 6.8 7.0 6.8 6.7 6.6 6.2 6.3 6.3 6.6 6.7
0.8 0.5 0.4 0.4 0.3 0.1 0.0 0.0 0.2 0.1 0.0 0.2 0.2 0.1 0.0 0.1 0.0 0.0 0.0 0.0 0.0 0.0 0.0 0.0 0.0 0.1 0.3 0.8 1.0 2.2 2.9 4.0 5.3 6.5 7.3 7.6 7.4 7.1 6.9 6.4 6.0 5.9 6.1 6.1